TimeAST,TemperatureF,Dew PointF,Humidity,Sea Level PressureIn,VisibilityMPH,Wind Direction,Wind SpeedMPH,Gust SpeedMPH,PrecipitationIn,Events,Conditions,WindDirDegrees,DateUTC
12:00 AM,78.8,69.8,74,29.95,6.2,East,10.4,-,N/A,,Scattered Clouds,80,2013-02-10 04:00:00
1:00 AM,78.8,71.6,78,29.95,6.2,East,11.5,-,N/A,,Scattered Clouds,80,2013-02-10 05:00:00
2:00 AM,78,71,74,29.94,19,East,10.4,,,,Partly Cloudy,80,2013-02-10 06:00:00
2:00 AM,78.8,71.6,78,29.92,6.2,East,10.4,-,N/A,,Scattered Clouds,80,2013-02-10 06:00:00
3:00 AM,78.8,69.8,74,29.92,6.2,East,10.4,-,N/A,,Scattered Clouds,80,2013-02-10 07:00:00
4:00 AM,78.8,71.6,78,29.89,6.2,East,10.4,-,N/A,,Scattered Clouds,90,2013-02-10 08:00:00
5:00 AM,78,71,74,29.91,19,East,9.2,,,,Partly Cloudy,80,2013-02-10 09:00:00
5:00 AM,78.8,71.6,78,29.92,6.2,East,9.2,-,N/A,,Scattered Clouds,80,2013-02-10 09:00:00
6:00 AM,77.0,71.6,83,29.92,6.2,East,8.1,-,N/A,,Scattered Clouds,100,2013-02-10 10:00:00
7:00 AM,78.8,71.6,78,29.92,6.2,East,9.2,-,N/A,,Scattered Clouds,90,2013-02-10 11:00:00
8:00 AM,80,72,70,29.96,31,East,8.1,,,,Partly Cloudy,90,2013-02-10 12:00:00
8:00 AM,80.6,71.6,74,29.95,6.2,East,9.2,-,N/A,,Scattered Clouds,90,2013-02-10 12:00:00
9:00 AM,82.4,73.4,74,29.98,6.2,East,9.2,-,N/A,,Scattered Clouds,90,2013-02-10 13:00:00
10:00 AM,86.0,71.6,62,30.01,6.2,East,10.4,-,N/A,,Scattered Clouds,100,2013-02-10 14:00:00
11:00 AM,86,72,55,30.01,31,East,10.4,,,,Partly Cloudy,100,2013-02-10 15:00:00
11:00 AM,86.0,71.6,62,30.01,6.2,East,10.4,-,N/A,,Scattered Clouds,100,2013-02-10 15:00:00
12:00 PM,86.0,71.6,62,29.98,6.2,East,9.2,-,N/A,,Scattered Clouds,90,2013-02-10 16:00:00
1:00 PM,86.0,73.4,66,29.98,6.2,East,11.5,-,N/A,,Mostly Cloudy,90,2013-02-10 17:00:00
2:00 PM,82,73,67,29.95,12,East,8.1,,,,Partly Cloudy,80,2013-02-10 18:00:00
2:00 PM,82.4,73.4,74,29.95,6.2,East,8.1,-,N/A,,Scattered Clouds,80,2013-02-10 18:00:00
3:00 PM,82.4,71.6,70,29.92,6.2,East,12.7,-,N/A,,Mostly Cloudy,80,2013-02-10 19:00:00
4:00 PM,82.4,73.4,74,29.92,6.2,East,8.1,-,N/A,,Scattered Clouds,90,2013-02-10 20:00:00
5:00 PM,84,71,56,29.92,22,East,9.2,,,,Partly Cloudy,90,2013-02-10 21:00:00
5:00 PM,82.4,71.6,70,29.92,6.2,East,9.2,-,N/A,,Scattered Clouds,90,2013-02-10 21:00:00
6:00 PM,82.4,71.6,70,29.92,6.2,East,10.4,-,N/A,,Scattered Clouds,100,2013-02-10 22:00:00
7:00 PM,78.8,73.4,83,29.92,6.2,ENE,11.5,-,N/A,,Scattered Clouds,70,2013-02-10 23:00:00
8:00 PM,79,74,79,29.96,22,East,11.5,,,,Partly Cloudy,80,2013-02-11 00:00:00
8:00 PM,78.8,73.4,83,29.95,6.2,East,11.5,-,N/A,,Partly Cloudy,80,2013-02-11 00:00:00
9:00 PM,78.8,73.4,83,29.95,6.2,East,13.8,-,N/A,,Partly Cloudy,80,2013-02-11 01:00:00
10:00 PM,73.4,69.8,88,30.01,6.2,East,16.1,-,N/A,,Scattered Clouds,80,2013-02-11 02:00:00
11:00 PM,74,69,81,30.01,19,East,16.1,,,Rain,Light Rain Showers,80,2013-02-11 03:00:00
11:00 PM,78.8,73.4,83,30.01,6.2,East,10.4,-,N/A,,Mostly Cloudy,90,2013-02-11 03:00:00